TimeIST,TemperatureF,Dew PointF,Humidity,Sea Level PressureIn,VisibilityMPH,Wind Direction,Wind SpeedMPH,Gust SpeedMPH,PrecipitationIn,Events,Conditions,WindDirDegrees,DateUTC
12:00 AM,77.0,69.8,78,29.71,2.5,Variable,1.2,-,N/A,,Haze,0,2013-09-04 18:30:00
1:00 AM,78.8,69.8,74,29.71,2.5,WNW,4.6,-,N/A,,Haze,290,2013-09-04 19:30:00
2:00 AM,77.0,68.0,74,29.71,2.5,Variable,3.5,-,N/A,,Haze,0,2013-09-04 20:30:00
2:30 AM,77.0,68.0,74,29.71,2.5,WNW,4.6,-,N/A,,Haze,290,2013-09-04 21:00:00
3:00 AM,75.2,68.0,78,29.68,2.5,West,4.6,-,N/A,,Haze,280,2013-09-04 21:30:00
4:00 AM,77.0,68.0,74,29.68,2.5,Variable,2.3,-,N/A,,Haze,0,2013-09-04 22:30:00
5:00 AM,75.2,68.0,78,29.68,2.5,Calm,Calm,-,N/A,,Haze,0,2013-09-04 23:30:00
5:30 AM,75,65,63,29.65,2,,2.3,,,,Haze,,2013-09-05 00:00:00
6:00 AM,75.2,68.0,78,29.71,2.5,Calm,Calm,-,N/A,,Haze,0,2013-09-05 00:30:00
7:00 AM,75.2,68.0,78,29.71,2.5,Calm,Calm,-,N/A,,Haze,0,2013-09-05 01:30:00
7:30 AM,77.0,68.0,74,29.74,2.5,WNW,5.8,-,N/A,,Haze,300,2013-09-05 02:00:00
8:00 AM,78.8,68.0,69,29.74,2.5,West,8.1,-,N/A,,Haze,280,2013-09-05 02:30:00
8:30 AM,80.6,69.8,70,29.77,2.5,West,9.2,-,N/A,,Haze,280,2013-09-05 03:00:00
9:00 AM,82.4,69.8,66,29.77,2.5,WNW,10.4,-,N/A,,Haze,300,2013-09-05 03:30:00
9:30 AM,82.4,69.8,66,29.77,2.5,WNW,15.0,-,N/A,,Haze,290,2013-09-05 04:00:00
10:30 AM,86.0,68.0,55,29.77,3.7,WNW,15.0,-,N/A,,Partly Cloudy,290,2013-09-05 05:00:00
11:00 AM,86.0,69.8,58,29.77,3.7,NW,11.5,-,N/A,,Partly Cloudy,310,2013-09-05 05:30:00
11:30 AM,90,67,37,29.67,2,WNW,13.8,,,,Scattered Clouds,290,2013-09-05 06:00:00
11:30 AM,87.8,68.0,52,29.77,3.7,WNW,13.8,-,N/A,,Partly Cloudy,290,2013-09-05 06:00:00
12:00 PM,89.6,68.0,49,29.77,3.7,NW,10.4,-,N/A,,Partly Cloudy,310,2013-09-05 06:30:00
12:30 PM,89.6,68.0,49,29.74,3.7,WNW,9.2,-,N/A,,Partly Cloudy,290,2013-09-05 07:00:00
1:30 PM,89.6,66.2,46,29.71,3.7,West,16.1,-,N/A,,Partly Cloudy,260,2013-09-05 08:00:00
2:00 PM,91.4,66.2,43,29.71,3.7,West,12.7,-,N/A,,Partly Cloudy,260,2013-09-05 08:30:00
2:30 PM,92,65,31,29.60,2,SW,11.5,,,,Scattered Clouds,230,2013-09-05 09:00:00
3:00 PM,91.4,64.4,41,29.68,3.7,West,11.5,-,N/A,,Partly Cloudy,280,2013-09-05 09:30:00
4:00 PM,91.4,66.2,43,29.65,3.7,WSW,12.7,-,N/A,,Partly Cloudy,250,2013-09-05 10:30:00
5:00 PM,91.4,64.4,41,29.65,3.7,West,11.5,-,N/A,,Partly Cloudy,270,2013-09-05 11:30:00
5:30 PM,92,69,38,29.57,2,West,11.5,,,,Scattered Clouds,270,2013-09-05 12:00:00
6:00 PM,89.6,66.2,46,29.65,3.7,West,10.4,-,N/A,,Partly Cloudy,280,2013-09-05 12:30:00
7:00 PM,86.0,68.0,55,29.68,3.7,West,8.1,-,N/A,,Partly Cloudy,270,2013-09-05 13:30:00
8:30 PM,85,69,51,29.62,2,WSW,9.2,,,,Haze,250,2013-09-05 15:00:00
9:00 PM,82.4,68.0,62,29.71,2.5,West,9.2,-,N/A,,Haze,260,2013-09-05 15:30:00
10:00 PM,80.6,68.0,65,29.74,2.5,West,6.9,-,N/A,,Haze,280,2013-09-05 16:30:00
11:00 PM,80.6,68.0,65,29.74,2.2,West,9.2,-,N/A,,Haze,280,2013-09-05 17:30:00
11:30 PM,81,69,59,29.65,1,WNW,4.6,,,,Haze,290,2013-09-05 18:00:00